K7OLI-13 Weather Reports


Display with metric or nautical units.
time (UTC)temp
F
wind
direction
speed
MPH
gust
MPH
rain 1hr
in
rain 24hr
in
rain mn
in
humidity
%
barometer
mb
20260509075040 52 0.0 0.0 0.00 0.00 0.00 92 1018.1
20260509074027 52 0.0 0.0 0.00 0.00 0.00 91 1018.1
20260509073025 53 0.0 0.0 0.00 0.00 0.00 90 1018.1
20260509072025 53 0.0 0.0 0.00 0.00 0.00 88 1018.1
20260509071033 54 221 2.0 3.0 0.00 0.00 0.00 88 1018.1
20260509070045 54 237 2.0 3.0 0.00 0.00 0.00 86 1018.1
20260509065030 55 223 3.0 4.0 0.00 0.00 0.00 86 1018.1
20260509064019 55 190 2.0 3.0 0.00 0.00 0.00 85 1018.1
20260509063027 55 223 3.0 5.0 0.00 0.00 0.00 84 1018.1
20260509062113 56 213 4.0 5.0 0.00 0.00 0.00 84 1018.1
20260509061024 56 201 4.0 5.0 0.00 0.00 0.00 83 1018.1
20260509060033 56 201 4.0 6.0 0.00 0.00 0.00 82 1018.1
20260509055041 57 210 5.0 7.0 0.00 0.00 0.00 82 1018.1
20260509054029 57 209 6.0 8.0 0.00 0.00 0.00 81 1018.1
20260509053019 57 210 6.0 10.0 0.00 0.00 0.00 80 1018.1
20260509052027 58 208 6.0 8.0 0.00 0.00 0.00 80 1018.1
20260509051054 58 193 5.0 7.0 0.00 0.00 0.00 79 1018.1
20260509050025 59 191 6.0 7.0 0.00 0.00 0.00 78 1018.1
20260509045050 59 231 4.0 6.0 0.00 0.00 0.00 78 1018.1
20260509044040 59 212 3.0 5.0 0.00 0.00 0.00 77 1018.1
20260509043029 60 240 4.0 6.0 0.00 0.00 0.00 76 1018.1
20260509042037 60 224 4.0 5.0 0.00 0.00 0.00 75 1018.1
20260509041026 61 220 4.0 7.0 0.00 0.00 0.00 74 1018.1
20260509040034 61 235 4.0 6.0 0.00 0.00 0.00 73 1018.1
20260509035023 62 238 4.0 6.0 0.00 0.00 0.00 72 1018.1
20260509034032 62 229 5.0 7.0 0.00 0.00 0.00 71 1018.1
20260509033020 63 222 6.0 9.0 0.00 0.00 0.00 69 1018.1
20260509032019 64 240 7.0 11.0 0.00 0.00 0.00 68 1018.1
20260509031036 64 209 6.0 7.0 0.00 0.00 0.00 66 1017.4
20260509030026 66 221 7.0 11.0 0.00 0.00 0.00 64 1017.1
20260509025033 67 221 6.0 8.0 0.00 0.00 0.00 61 1017.1
20260509024043 67 231 6.0 8.0 0.00 0.00 0.00 60 1017.1
20260509023031 68 236 5.0 7.0 0.00 0.00 0.00 57 1017.2
20260509022040 68 232 6.0 8.0 0.00 0.00 0.00 57 1017.2
20260509021028 69 210 4.0 7.0 0.00 0.00 0.00 56 1017.1
20260509020036 68 210 5.0 7.0 0.00 0.00 0.00 56 1017.1
20260509015045 69 222 3.0 4.0 0.00 0.00 0.00 55 1017.1
20260509014033 69 12 1.0 4.0 0.00 0.00 0.00 54 1017.1
20260509013023 70 219 5.0 7.0 0.00 0.00 0.00 54 1017.1
20260509012021 69 218 7.0 8.0 0.00 0.00 0.00 54 1018.1
20260509011019 70 230 5.0 9.0 0.00 0.00 0.00 53 1018.1
20260509010033 69 136 3.0 5.0 0.00 0.00 0.00 54 1018.1
20260509005035 69 184 3.0 5.0 0.00 0.00 0.00 54 1018.1
20260509004025 69 224 6.0 9.0 0.00 0.00 0.00 54 1018.1
20260509003033 69 203 6.0 8.0 0.00 0.00 0.00 54 1018.1
20260509002024 70 227 6.0 9.0 0.00 0.00 0.00 53 1018.1
20260509001033 68 180 4.0 8.0 0.00 0.00 0.00 54 1018.1
20260509000019 69 238 8.0 11.0 0.00 0.00 0.00 53 1018.1
20260508235027 69 222 7.0 10.0 0.00 0.00 0.00 53 1018.1
20260508234055 69 231 6.0 8.0 0.00 0.00 0.00 52 1018.1
20260508233027 70 185 5.0 9.0 0.00 0.00 0.00 51 1018.1
20260508232025 69 248 5.0 7.0 0.00 0.00 0.00 52 1018.1
20260508231041 70 223 8.0 12.0 0.00 0.00 0.00 51 1018.1
20260508230029 70 199 5.0 7.0 0.00 0.00 0.00 50 1018.1
20260508225019 68 115 4.0 5.0 0.00 0.00 0.00 50 1018.1
20260508224027 69 179 4.0 7.0 0.00 0.00 0.00 50 1018.1
20260508223055 69 210 3.0 5.0 0.00 0.00 0.00 50 1018.1
20260508222025 69 140 6.0 7.0 0.00 0.00 0.00 49 1018.1
20260508221032 69 190 4.0 7.0 0.00 0.00 0.00 48 1018.1
20260508220025 68 201 6.0 8.0 0.00 0.00 0.00 49 1018.1
20260508215029 68 219 3.0 5.0 0.00 0.00 0.00 49 1018.1
20260508214037 68 198 6.0 9.0 0.00 0.00 0.00 52 1018.1
20260508213026 66 171 6.0 9.0 0.00 0.00 0.00 51 1018.1
20260508212025 68 218 6.0 9.0 0.00 0.00 0.00 50 1018.1
20260508211025 67 182 5.0 7.0 0.00 0.00 0.00 50 1018.1
20260508210033 66 208 4.0 7.0 0.00 0.00 0.00 51 1018.1
20260508205020 66 155 5.0 7.0 0.00 0.00 0.00 51 1018.1
20260508204027 66 168 5.0 9.0 0.00 0.00 0.00 52 1018.9
20260508203036 66 191 5.0 9.0 0.00 0.00 0.00 52 1019.1
20260508202027 65 93 5.0 7.0 0.00 0.00 0.00 53 1019.1
20260508201053 65 94 5.0 8.0 0.00 0.00 0.00 54 1019.1
20260508200025 66 192 5.0 8.0 0.00 0.00 0.00 53 1019.1
20260508195030 66 155 4.0 8.0 0.00 0.00 0.00 52 1019.1
20260508194020 65 152 4.0 7.0 0.00 0.00 0.00 54 1019.1
20260508193027 64 189 6.0 10.0 0.00 0.00 0.00 55 1019.1
20260508192027 62 139 4.0 7.0 0.00 0.00 0.00 57 1019.1
20260508191025 64 131 6.0 7.0 0.00 0.00 0.00 56 1019.1
20260508190033 62 205 6.0 7.0 0.00 0.00 0.00 57 1019.1
20260508185041 61 198 5.0 8.0 0.00 0.00 0.00 61 1019.1
20260508184030 60 174 4.0 6.0 0.00 0.00 0.00 61 1019.1
20260508183019 60 185 7.0 10.0 0.00 0.00 0.00 62 1019.1
20260508182028 60 279 3.0 7.0 0.00 0.00 0.00 61 1019.1
20260508181035 61 134 5.0 7.0 0.00 0.00 0.00 61 1019.1
20260508180025 59 174 6.0 9.0 0.00 0.00 0.00 65 1019.1
20260508175031 59 164 8.0 12.0 0.00 0.00 0.00 64 1019.1
20260508174041 59 156 6.0 10.0 0.00 0.00 0.00 64 1019.1
20260508173029 56 183 5.0 8.0 0.00 0.00 0.00 70 1019.1
20260508172019 56 185 8.0 10.0 0.00 0.00 0.00 70 1019.1
20260508171019 56 182 6.0 8.0 0.00 0.00 0.00 70 1019.1
20260508170034 55 175 7.0 8.0 0.00 0.00 0.00 71 1019.1
20260508165023 55 173 7.0 9.0 0.00 0.00 0.00 72 1018.1
20260508164031 56 151 5.0 8.0 0.00 0.00 0.00 72 1018.1
20260508163020 56 131 5.0 9.0 0.00 0.00 0.00 71 1018.1
20260508162033 55 150 7.0 8.0 0.00 0.00 0.00 73 1018.1
20260508161021 55 130 6.0 8.0 0.00 0.00 0.00 74 1018.1
20260508160025 55 124 7.0 8.0 0.00 0.00 0.00 75 1018.1
20260508155053 54 116 6.0 9.0 0.00 0.00 0.00 77 1018.1
20260508154022 54 136 6.0 8.0 0.00 0.00 0.00 78 1018.1
20260508153031 54 132 6.0 8.0 0.00 0.00 0.00 78 1018.1
20260508152020 53 99 6.0 10.0 0.00 0.00 0.00 81 1018.1
20260508151022 51 86 6.0 8.0 0.00 0.00 0.00 84 1018.1
20260508150055 51 107 5.0 8.0 0.00 0.00 0.00 84 1018.1
20260508145025 51 97 4.0 7.0 0.00 0.00 0.00 83 1018.1
20260508144033 51 89 5.0 6.0 0.00 0.00 0.00 83 1018.1
20260508143042 52 110 4.0 6.0 0.00 0.00 0.00 79 1018.2
20260508142033 52 119 3.0 6.0 0.00 0.00 0.00 80 1018.2
20260508141019 51 154 5.0 6.0 0.00 0.00 0.00 81 1018.1
20260508140027 51 159 5.0 7.0 0.00 0.00 0.00 83 1018.2
20260508135035 50 159 4.0 5.0 0.00 0.00 0.00 85 1017.1
20260508134024 49 150 4.0 5.0 0.00 0.00 0.00 86 1017.1
20260508133032 49 156 4.0 7.0 0.00 0.00 0.00 86 1017.1
20260508132022 48 143 5.0 8.0 0.00 0.00 0.00 87 1017.1
20260508131025 48 155 4.0 6.0 0.00 0.00 0.00 87 1016.3
20260508130018 48 170 3.0 5.0 0.00 0.00 0.00 86 1016.1
20260508125027 49 165 6.0 8.0 0.00 0.00 0.00 86
20260508124055 49 166 5.0 7.0 0.00 0.00 0.00 86
20260508123024 49 167 3.0 5.0 0.00 0.00 0.00 85 1016.1
20260508122034 49 176 4.0 6.0 0.00 0.00 0.00 84
20260508121025 50 168 4.0 8.0 0.00 0.00 0.00 84
20260508120029 50 181 5.0 7.0 0.00 0.00 0.00 84 1016.2
20260508115019 50 182 6.0 10.0 0.00 0.00 0.00 84 1016.2
20260508114027 50 184 7.0 12.0 0.00 0.00 0.00 84 1015.4
20260508113034 50 203 5.0 6.0 0.00 0.00 0.00 84 1015.1
20260508112025 50 196 5.0 6.0 0.00 0.00 0.00 84 1015.2
20260508111025 50 217 4.0 5.0 0.00 0.00 0.00 84 1015.2
20260508110022 50 197 4.0 5.0 0.00 0.00 0.00 84 1015.2
20260508105049 50 210 2.0 4.0 0.00 0.00 0.00 83 1015.2
20260508104018 50 203 4.0 4.0 0.00 0.00 0.00 83 1015.2
20260508103027 50 200 5.0 7.0 0.00 0.00 0.00 83 1015.1
20260508102037 50 186 6.0 8.0 0.00 0.00 0.00 83 1015.2
20260508101026 50 199 5.0 7.0 0.00 0.00 0.00 83 1014.4
20260508100033 50 177 5.0 7.0 0.00 0.00 0.00 83 1014.1
20260508095021 50 198 6.0 7.0 0.00 0.00 0.00 82 1014.1
20260508094109 50 203 5.0 6.0 0.00 0.00 0.00 80 1014.1
20260508093037 51 206 4.0 6.0 0.00 0.00 0.00 79 1014.1
20260508092026 51 181 3.0 4.0 0.00 0.00 0.00 77 1014.1
20260508091027 51 176 3.0 5.0 0.00 0.00 0.00 76 1014.2
20260508090045 51 203 4.0 7.0 0.00 0.00 0.00 76 1014.1
20260508085032 51 202 5.0 6.0 0.00 0.00 0.00 76 1014.1
20260508084021 52 207 6.0 8.0 0.00 0.00 0.00 76 1014.1
20260508083028 52 211 5.0 7.0 0.00 0.00 0.00 76 1014.1
20260508082202 52 227 5.0 8.0 0.00 0.00 0.00 77 1014.1
20260508081028 52 218 5.0 6.0 0.00 0.00 0.00 76 1014.1
20260508080034 53 220 6.0 9.0 0.00 0.00 0.00 75 1014.1